Date,TemperatureHighF,TemperatureAvgF,TemperatureLowF,DewpointHighF,DewpointAvgF,DewpointLowF,HumidityHigh,HumidityAvg,HumidityLow,PressureMaxIn,PressureMinIn,WindSpeedMaxMPH,WindSpeedAvgMPH,GustSpeedMaxMPH,PrecipitationSumIn
2012-1-21,22,20,16,16,14,11,85,79,74,30.25,30.11,11,2,11,0.03
2012-1-22,43,30,18,40,26,13,94,88,80,30.20,29.72,22,9,22,0.07
2012-1-23,54,43,34,48,38,27,93,83,74,29.91,29.44,34,16,36,0.34
2012-1-24,34,32,27,28,26,23,86,79,74,30.33,29.91,24,8,24,0.00
2012-1-25,33,29,24,30,26,21,93,88,78,30.35,30.10,8,1,8,0.00
2012-1-26,36,34,32,34,32,30,95,94,92,30.10,29.48,7,1,7,0.78
2012-1-27,40,35,33,34,31,28,95,87,69,30.04,29.47,18,6,19,0.16
2012-1-28,35,33,31,32,25,17,94,73,50,30.22,29.86,35,12,35,0.02
2012-1-29,37,31,25,28,22,19,91,70,56,30.24,30.02,35,10,35,0.00
2012-1-30,48,35,22,33,26,17,85,69,55,30.26,29.98,24,8,25,0.00
2012-1-31,57,50,45,47,37,30,84,61,49,30.04,29.91,31,13,31,0.00
2012-2-1,52,46,37,49,42,33,92,85,72,30.13,29.90,24,4,25,0.11
2012-2-2,44,37,29,34,31,26,91,80,63,30.40,30.13,14,1,14,0.00
2012-2-3,49,38,27,37,32,25,92,81,61,30.49,30.33,13,1,13,0.01
2012-2-4,36,35,33,34,32,31,93,91,86,30.33,30.13,10,1,10,0.38
2012-2-5,44,34,28,36,30,26,95,86,60,30.26,30.12,7,0,7,0.02
2012-2-6,47,37,27,36,31,24,91,80,57,30.22,30.08,19,4,20,0.00
2012-2-7,37,33,31,32,29,26,89,83,79,30.30,30.14,10,2,14,0.00
2012-2-8,37,31,27,26,23,18,84,73,46,30.32,30.25,11,2,13,0.01
2012-2-9,33,29,25,24,21,20,84,73,63,30.31,30.16,24,7,24,0.00
2012-2-10,33,31,28,32,26,20,94,82,69,30.16,29.82,31,7,31,0.00
2012-2-11,28,17,11,26,11,6,93,77,62,30.31,29.85,22,7,22,0.00
2012-2-12,28,22,16,19,12,7,73,66,58,30.28,30.21,22,10,22,0.00
2012-2-13,36,29,21,25,16,10,76,59,39,30.21,29.97,21,6,21,0.00
2012-2-14,36,33,30,33,30,25,94,88,76,30.07,29.85,12,5,12,0.06
2012-2-15,43,38,34,38,32,28,87,80,74,30.22,30.00,19,5,19,0.04
2012-2-16,45,42,35,43,38,31,92,86,77,30.11,29.91,20,5,20,0.03
2012-2-17,46,38,32,34,29,26,90,72,49,30.17,30.01,16,4,16,0.00
2012-2-18,42,37,28,32,26,20,83,66,47,30.17,29.98,20,5,20,0.00
2012-2-19,35,29,23,23,21,18,82,72,61,30.19,30.07,19,2,19,0.00
2012-2-20,41,30,19,27,22,16,89,73,53,30.37,30.06,14,2,14,0.00
2012-2-21,45,41,36,40,34,24,87,77,60,30.06,29.69,28,11,29,0.13
2012-2-22,56,44,37,39,36,32,91,74,43,29.74,29.37,24,6,24,0.00
2012-2-23,44,38,31,41,36,30,98,93,83,29.67,29.43,14,2,14,0.56
2012-2-24,44,38,32,40,34,25,93,83,72,29.90,29.35,37,12,43,0.02
2012-2-25,33,30,27,25,20,18,77,67,59,30.42,29.90,32,12,34,0.00
2012-2-26,46,34,21,27,22,17,86,64,41,30.48,30.20,24,7,24,0.00
2012-2-27,49,41,26,31,26,22,84,57,41,30.54,30.15,32,9,32,0.00
2012-2-28,49,36,21,30,25,18,90,68,44,30.55,30.06,14,2,14,0.00
2012-2-29,68,53,40,59,41,29,96,67,38,30.05,29.50,31,7,31,0.55
2012-3-1,45,38,32,34,31,29,88,76,64,29.93,29.63,27,9,27,0.00
2012-3-2,57,43,0,52,38,29,93,81,65,29.91,29.26,40,9,45,0.70
2012-3-3,37,33,30,30,25,22,82,74,65,29.86,29.54,29,14,32,0.00
2012-3-4,35,31,28,26,24,22,85,78,62,29.94,29.83,20,7,21,0.00
2012-3-5,32,29,26,25,21,15,89,72,55,30.48,29.93,21,3,21,0.00
2012-3-6,60,44,27,35,27,21,77,55,34,30.47,30.15,29,11,29,0.00
2012-3-7,67,58,48,46,36,26,60,46,36,30.25,30.01,39,15,39,0.00
2012-3-8,62,50,32,53,42,28,91,75,58,30.25,29.90,36,11,36,0.47
2012-3-9,41,35,27,28,22,16,75,60,39,30.57,30.24,24,8,25,0.00
2012-3-10,51,36,22,29,23,18,87,60,37,30.61,30.32,20,6,21,0.00
2012-3-11,67,52,36,39,31,25,67,47,28,30.35,30.20,17,5,18,0.00
2012-3-12,64,58,51,58,50,34,91,77,47,30.21,29.86,31,12,31,0.32
2012-3-13,71,61,48,58,50,39,88,69,38,30.15,29.90,29,6,29,0.02
2012-3-14,78,63,44,58,50,39,89,65,42,30.18,30.05,20,5,20,0.00
2012-3-15,78,68,60,65,59,53,84,72,58,30.11,30.01,22,7,26,0.01
2012-3-16,76,66,60,60,56,53,85,72,55,30.18,30.07,17,6,17,0.00
2012-3-17,76,64,52,60,56,50,96,76,51,30.23,30.11,18,4,18,0.00
2012-3-18,75,65,59,60,57,54,89,76,56,30.18,30.06,19,3,19,0.00
2012-3-19,82,69,57,62,59,54,92,72,45,30.13,30.02,19,3,20,0.00
2012-3-20,84,72,60,60,56,52,82,59,36,30.16,30.04,16,5,16,0.00
2012-3-21,87,75,62,58,54,49,76,50,29,30.18,30.05,13,3,13,0.00
2012-3-22,84,72,58,58,54,51,80,57,37,30.16,30.05,11,1,12,0.00
2012-3-23,69,64,61,63,60,55,94,86,73,30.08,29.82,11,1,11,0.39
2012-3-24,66,59,53,60,54,50,96,85,63,29.88,29.76,18,3,18,0.22
2012-3-25,69,59,51,56,53,49,96,82,58,30.03,29.88,13,2,17,0.00
2012-3-26,58,44,35,51,31,22,83,61,46,30.43,30.03,20,5,20,0.00
2012-3-27,60,45,31,35,25,17,73,48,28,30.43,29.97,24,7,25,0.00
2012-3-28,71,63,49,56,43,34,72,51,26,30.00,29.81,36,12,37,0.00
2012-3-29,56,46,36,37,34,31,84,65,46,30.17,30.00,16,2,16,0.00
2012-3-30,73,49,38,57,40,31,88,73,54,30.10,29.64,26,6,26,0.00
2012-3-31,44,41,38,39,37,36,93,85,75,30.03,29.86,11,2,11,0.00
2012-4-1,72,54,40,56,45,36,88,74,54,29.99,29.66,21,6,24,0.01
2012-4-2,62,50,40,46,38,35,85,67,40,30.06,29.78,16,4,18,0.00
2012-4-3,74,55,42,55,45,36,86,70,46,30.04,29.78,17,4,20,0.34
2012-4-4,63,55,47,49,40,31,85,60,31,29.94,29.84,20,4,21,0.00
2012-4-5,50,44,37,36,32,29,77,63,51,30.13,29.92,19,4,20,0.00
2012-4-6,57,43,30,35,28,22,85,60,27,30.31,30.13,14,3,14,0.00
2012-4-7,65,48,29,33,26,16,90,50,15,30.39,30.17,12,1,12,0.00
2012-4-8,62,54,45,44,32,20,82,47,22,30.20,30.11,26,4,26,0.02
2012-4-9,62,53,42,40,31,19,72,46,21,30.13,29.89,28,5,32,0.00
2012-4-10,43,39,35,28,24,21,65,56,46,30.12,29.93,20,5,24,0.00
2012-4-11,51,40,29,31,27,22,80,62,41,30.28,30.10,14,2,16,0.00
2012-4-12,59,45,28,34,28,22,91,57,28,30.33,30.17,18,3,19,0.00
2012-4-13,65,50,31,35,30,25,91,52,23,30.31,30.14,17,3,18,0.00
2012-4-14,59,55,50,57,46,30,94,75,41,30.15,29.96,21,6,21,0.33
2012-4-15,78,68,57,60,56,53,94,67,43,29.97,29.83,34,12,35,0.01
2012-4-16,69,64,50,60,52,41,87,66,53,30.22,29.73,36,14,36,0.09
2012-4-17,62,52,40,42,39,37,90,64,43,30.40,30.21,13,2,13,0.00
2012-4-18,68,54,39,40,36,32,88,55,28,30.32,30.05,13,2,14,0.00
2012-4-19,77,64,49,46,42,38,68,46,28,30.07,29.88,19,6,20,0.00
2012-4-20,76,63,48,53,47,44,93,59,37,29.88,29.70,29,9,29,0.12
2012-4-21,49,43,40,45,37,34,92,79,63,30.02,29.84,18,4,18,0.00
2012-4-22,51,43,35,37,32,26,82,66,44,30.03,29.94,19,4,21,0.00
2012-4-23,58,47,37,27,21,14,58,38,20,29.97,29.71,30,8,33,0.00
2012-4-24,62,49,37,29,23,19,60,38,22,29.77,29.68,28,8,28,0.00
2012-4-25,62,50,35,51,39,27,88,67,46,29.86,29.72,18,4,18,0.11
2012-4-26,62,54,43,55,47,35,95,78,48,30.10,29.62,21,5,21,0.14
2012-4-27,55,44,32,36,27,22,76,51,29,30.32,30.10,14,2,14,0.00
2012-4-28,48,45,40,40,32,22,85,63,39,30.27,30.12,24,5,24,0.13
2012-4-29,66,51,36,39,33,25,82,53,26,30.33,30.16,16,3,17,0.00
2012-4-30,81,65,52,61,48,27,94,58,36,30.17,29.86,26,7,32,0.31
2012-5-1,68,62,57,60,57,54,94,86,65,30.09,29.89,16,2,16,0.38
2012-5-2,83,72,60,68,64,58,95,78,55,29.99,29.90,25,6,25,0.69
2012-5-3,85,77,66,67,64,62,90,67,50,30.04,29.90,24,7,25,0.00
2012-5-4,80,72,62,70,64,59,91,78,61,29.98,29.86,16,4,17,0.31
2012-5-5,71,64,58,63,58,52,96,83,67,30.08,29.91,14,4,14,0.00
2012-5-6,77,64,50,53,46,41,85,56,35,30.11,29.94,12,2,12,0.00
2012-5-7,80,64,53,66,55,41,94,73,49,29.95,29.76,19,2,19,0.17
2012-5-8,71,62,54,63,54,48,94,77,50,29.88,29.78,19,3,19,0.02
2012-5-9,66,59,51,51,46,41,80,64,44,29.90,29.80,21,5,22,0.00
2012-5-10,66,54,42,42,36,26,85,55,26,30.06,29.89,21,3,21,0.00
2012-5-11,73,61,42,45,37,30,88,47,21,30.22,30.06,18,3,18,0.00
2012-5-12,77,66,54,48,43,38,61,45,26,30.28,30.17,16,5,16,0.00
2012-5-13,76,66,54,52,49,43,87,58,33,30.19,30.08,17,4,17,0.00
2012-5-14,78,63,51,57,52,48,95,69,35,30.11,29.99,12,3,12,0.00
2012-5-15,82,68,51,55,44,34,88,48,19,30.02,29.89,24,3,24,0.00
2012-5-16,71,66,55,54,40,31,70,40,25,30.12,29.87,16,4,16,0.00
2012-5-17,71,58,43,40,36,29,83,46,25,30.23,30.12,14,3,14,0.00
2012-5-18,81,65,44,48,39,33,76,42,19,30.17,30.04,13,2,13,0.00
2012-5-19,88,71,53,56,50,44,80,50,27,30.15,30.06,16,2,17,0.00
2012-5-20,88,76,60,57,52,48,77,47,28,30.16,30.00,17,3,17,0.00
2012-5-21,79,69,60,62,56,50,84,64,46,30.02,29.96,20,3,20,0.00
2012-5-22,76,66,56,55,52,46,93,65,41,30.01,29.89,12,2,12,0.00
2012-5-23,81,68,53,57,54,50,93,64,41,29.97,29.83,16,2,16,0.00
2012-5-24,87,74,60,62,58,54,85,60,35,29.93,29.78,24,7,24,0.00
2012-5-25,90,79,69,67,62,56,89,58,37,30.08,29.85,19,6,20,0.01
2012-5-26,91,78,67,67,58,52,90,53,39,30.18,30.03,16,2,16,0.00
2012-5-27,94,82,68,68,62,54,77,52,31,30.10,29.92,16,4,16,0.00
2012-5-28,94,84,72,68,63,56,81,53,29,29.95,29.77,21,6,21,0.00
2012-5-29,81,74,65,68,64,57,93,71,48,29.88,29.72,25,5,25,1.21
2012-5-30,76,68,55,60,50,41,90,56,29,29.89,29.81,19,3,19,0.00
2012-5-31,73,62,52,56,52,47,86,70,50,29.97,29.76,24,4,24,0.02
2012-6-1,60,56,50,57,51,44,96,84,70,29.80,29.58,21,6,22,0.26
2012-6-2,71,60,50,51,47,40,89,65,35,29.84,29.76,31,8,31,0.00
2012-6-3,78,67,56,57,48,38,82,56,26,29.85,29.77,21,6,21,0.00
2012-6-4,76,66,55,54,49,44,83,57,33,29.88,29.75,13,2,16,0.00
2012-6-5,67,59,51,55,49,44,91,71,46,30.02,29.88,20,3,20,0.02
2012-6-6,76,62,45,53,47,43,93,61,34,30.08,30.00,14,2,16,0.00
2012-6-7,82,68,54,58,50,44,88,58,28,30.12,30.02,12,1,14,0.01
2012-6-8,85,70,53,55,47,37,91,51,21,30.11,29.94,13,1,13,0.00
2012-6-9,87,75,60,56,51,47,69,46,28,30.02,29.92,16,3,19,0.00
2012-6-10,90,78,62,59,55,50,77,48,28,30.05,29.97,18,3,19,0.00
2012-6-11,80,74,67,70,65,54,95,77,44,29.99,29.86,18,5,18,0.51
2012-6-12,82,74,62,68,57,41,91,61,24,30.08,29.85,20,4,20,0.00
2012-6-13,75,64,57,53,47,39,88,56,29,30.20,30.08,10,2,13,0.00
2012-6-14,84,68,51,56,48,42,85,54,24,30.21,30.09,11,1,12,0.00
2012-6-15,89,74,54,62,54,48,89,53,28,30.16,30.08,14,2,16,0.00
2012-6-16,89,78,70,69,63,58,78,61,43,30.17,29.97,27,6,27,0.09
2012-6-17,84,76,68,70,66,60,88,71,48,29.97,29.83,18,4,19,0.12
2012-6-18,90,79,66,71,65,62,92,67,42,29.92,29.83,25,5,25,0.00
2012-6-19,92,82,73,66,63,59,71,55,35,30.07,29.93,19,5,21,0.00
2012-6-20,92,82,68,67,62,58,84,54,34,30.13,29.97,18,4,20,0.00
2012-6-21,92,80,71,69,64,56,92,60,32,30.01,29.81,21,4,21,0.32
2012-6-22,84,73,61,68,59,51,95,66,37,29.99,29.90,11,1,11,0.01
2012-6-23,85,72,58,66,57,50,92,62,30,30.05,29.97,11,1,11,0.00
2012-6-24,90,78,63,66,58,51,86,53,28,30.03,29.87,14,2,18,0.00
2012-6-25,77,72,63,64,53,43,84,54,30,30.04,29.87,17,4,21,0.00
2012-6-26,80,66,49,53,47,42,91,54,27,30.09,29.95,13,1,13,0.00
2012-6-27,88,73,55,53,49,44,80,49,25,30.06,29.86,16,2,16,0.00
2012-6-28,103,86,69,74,62,51,63,47,29,29.88,29.69,20,4,21,0.00
2012-6-29,92,85,68,75,72,52,78,65,55,29.92,29.72,42,2,43,0.36
2012-6-30,89,76,64,72,67,61,92,75,50,29.96,29.79,17,6,17,0.19
2012-7-1,93,76,67,73,67,59,94,76,44,30.02,29.86,33,4,33,0.00
2012-7-2,92,76,63,73,66,60,93,72,44,30.04,29.93,8,1,8,0.00
2012-7-3,94,83,72,70,67,59,87,61,34,29.96,29.83,16,2,17,0.00
2012-7-4,98,85,73,74,70,64,87,62,37,29.92,29.81,17,3,18,0.00
2012-7-5,97,83,75,73,69,64,83,65,38,29.98,29.87,21,2,21,0.00
2012-7-6,102,87,71,76,69,60,89,60,27,29.98,29.88,11,1,11,0.00
2012-7-7,100,89,79,75,71,62,82,59,30,29.95,29.85,13,2,13,0.00
2012-7-8,86,78,72,75,62,56,80,59,37,30.02,29.90,14,2,14,0.00
2012-7-9,90,77,60,63,59,53,90,57,31,30.06,29.96,11,1,12,0.00
2012-7-10,86,75,62,65,60,50,90,61,42,30.09,29.99,14,2,18,0.00
2012-7-11,91,77,65,60,53,46,74,47,24,30.15,30.07,11,2,16,0.00
2012-7-12,93,78,63,63,56,49,80,50,25,30.13,30.03,11,1,11,0.00
2012-7-13,89,78,66,67,62,57,87,60,37,30.13,30.04,14,3,16,0.00
2012-7-14,91,76,66,70,65,62,93,72,40,30.12,29.99,17,1,21,0.54
2012-7-15,89,79,71,72,69,66,93,75,49,30.11,29.97,16,3,16,0.02
2012-7-16,94,81,67,71,67,60,93,66,34,30.03,29.86,11,1,13,0.00
2012-7-17,97,84,73,73,70,66,86,63,39,29.90,29.79,16,2,16,0.00
2012-7-18,93,79,72,76,71,66,89,77,52,29.97,29.83,18,1,20,0.32
2012-7-19,82,75,71,72,70,69,94,86,69,30.00,29.83,12,1,12,0.33
2012-7-20,75,70,61,71,64,57,92,81,60,30.06,29.86,17,3,18,0.01
2012-7-21,85,70,55,65,59,53,95,71,37,30.13,30.04,11,1,12,0.00
2012-7-22,90,78,66,71,65,61,87,66,42,30.13,30.04,12,1,14,0.00
2012-7-23,93,80,71,73,69,64,87,69,46,30.09,29.87,19,3,22,0.11
2012-7-24,82,77,70,72,70,64,94,79,66,30.02,29.86,14,2,16,0.87
2012-7-25,89,77,64,75,65,57,84,67,51,29.98,29.67,13,3,17,0.00
2012-7-26,88,81,75,74,71,66,85,70,55,29.75,29.63,21,5,24,0.00
2012-7-27,88,77,66,70,67,60,93,74,40,29.89,29.73,21,2,21,0.02
2012-7-28,81,71,65,68,64,62,93,80,55,30.08,29.89,11,1,12,0.01
2012-7-29,87,74,60,68,63,58,95,72,40,30.12,29.99,10,1,12,0.00
2012-7-30,88,76,64,67,63,59,89,68,41,30.02,29.91,10,1,12,0.00
2012-7-31,87,76,66,70,64,60,83,68,45,29.97,29.84,13,2,16,0.00
2012-8-1,88,75,63,67,62,56,91,67,37,29.93,29.86,10,1,11,0.00
2012-8-2,92,74,57,65,59,54,92,64,29,29.93,29.84,13,1,13,0.00
2012-8-3,94,80,66,70,63,57,85,59,31,29.94,29.85,16,2,16,0.00
2012-8-4,91,77,68,76,70,65,94,80,57,30.06,29.85,30,4,32,2.70
2012-8-5,83,75,64,72,68,59,95,79,47,30.13,29.91,17,3,18,0.62
2012-8-6,83,69,54,65,58,52,93,71,43,30.18,30.03,13,1,13,0.00
2012-8-7,85,72,56,68,60,54,95,71,39,30.04,29.93,11,1,11,0.01
2012-8-8,89,78,66,73,66,61,87,68,49,29.96,29.89,11,1,12,0.03
2012-8-9,80,72,67,68,66,64,93,82,60,29.98,29.73,12,1,16,0.29
2012-8-10,71,63,57,67,59,53,95,86,69,29.84,29.66,22,4,26,0.96
2012-8-11,75,64,57,64,59,55,93,82,59,29.98,29.82,18,3,18,0.03
2012-8-12,77,67,57,62,58,53,93,76,46,30.05,29.98,13,1,13,0.01
2012-8-13,80,69,63,65,61,58,90,76,54,30.02,29.91,11,0,11,0.03
2012-8-14,75,68,61,65,63,58,95,84,65,29.95,29.86,11,1,11,0.88
2012-8-15,82,68,56,66,61,54,96,79,53,30.00,29.94,12,1,12,0.01
2012-8-16,81,70,61,65,62,58,90,76,52,30.00,29.80,19,2,22,0.00
2012-8-17,77,69,60,64,59,52,93,72,45,29.99,29.87,12,2,13,0.01
2012-8-18,76,64,51,57,53,49,94,71,43,30.04,29.94,8,1,8,0.01
2012-8-19,78,65,56,56,53,46,92,69,34,29.98,29.88,11,1,11,0.00
2012-8-20,78,64,50,58,54,48,94,73,40,30.01,29.92,12,1,12,0.00
2012-8-21,79,67,57,60,56,48,93,71,35,30.11,30.00,11,1,12,0.00
2012-8-22,83,67,52,61,54,50,93,69,36,30.18,30.08,8,0,8,0.00
2012-8-23,86,70,54,64,57,52,93,69,35,30.17,30.08,10,1,10,0.00
2012-8-24,89,73,59,67,60,54,88,66,34,30.14,30.03,11,1,11,0.00
2012-8-25,92,76,63,66,60,55,88,61,31,30.12,30.05,12,2,12,0.00
2012-8-26,90,78,67,69,63,57,82,63,38,30.14,30.00,11,2,13,0.00
2012-8-27,82,74,69,72,68,62,94,82,65,30.02,29.94,14,1,14,0.46
2012-8-28,81,70,58,65,60,56,93,74,47,30.11,30.02,13,1,13,0.00
2012-8-29,80,68,56,63,58,54,95,73,42,30.12,30.03,8,1,8,0.01
2012-8-30,87,70,54,67,57,52,93,68,33,30.14,30.02,10,1,10,0.00
2012-8-31,91,76,60,73,65,53,84,71,51,30.13,30.04,17,3,17,0.00
2012-9-1,85,77,72,75,71,69,92,84,67,30.09,29.99,7,0,8,0.16
2012-9-2,82,76,71,73,71,69,94,84,70,30.00,29.87,11,2,12,0.42
2012-9-3,84,76,70,74,70,68,93,81,64,29.91,29.86,17,2,17,0.01
2012-9-4,86,75,71,73,71,67,93,86,59,29.90,29.81,14,0,14,0.12
2012-9-5,83,73,65,72,67,63,96,83,61,29.90,29.80,10,1,11,0.02
2012-9-6,86,74,64,72,65,62,94,78,46,29.93,29.84,11,1,13,0.01
2012-9-7,83,71,62,72,64,59,95,82,57,29.93,29.69,17,2,21,0.74
2012-9-8,72,63,54,64,55,50,94,77,51,29.91,29.62,16,3,18,0.71
2012-9-9,72,61,52,56,53,50,93,76,50,30.10,29.89,10,1,10,0.00
2012-9-10,75,61,47,55,50,44,95,71,34,30.26,30.10,7,0,7,0.01
2012-9-11,80,65,52,54,50,47,90,63,35,30.28,30.18,13,2,14,0.00
2012-9-12,83,68,54,61,55,48,85,65,40,30.28,30.18,14,2,16,0.00
2012-9-13,83,70,62,62,58,53,87,68,37,30.30,30.19,10,1,10,0.00
2012-9-14,69,60,51,59,54,49,92,82,53,30.34,30.19,11,1,13,0.07
2012-9-15,73,58,45,53,47,43,95,73,35,30.37,30.20,7,0,8,0.01
2012-9-16,78,61,46,54,48,43,91,67,30,30.21,30.05,10,1,13,0.00
2012-9-17,78,65,53,63,55,47,88,71,48,30.05,29.74,13,3,13,0.01
2012-9-18,66,60,44,63,52,38,94,75,45,30.04,29.61,17,3,20,0.41
2012-9-19,68,54,40,45,38,32,92,62,29,30.18,30.04,13,2,16,0.00
2012-9-20,73,61,51,55,47,39,81,60,45,30.06,29.89,17,5,19,0.00
2012-9-21,70,58,50,54,47,35,92,71,31,30.00,29.75,12,1,14,0.34
2012-9-22,63,52,44,52,47,40,95,83,62,30.16,29.76,28,3,28,0.14
2012-9-23,62,49,39,45,38,34,93,70,37,30.28,30.16,16,2,17,0.00
2012-9-24,67,50,36,41,36,31,93,63,28,30.30,30.05,18,2,18,0.01
2012-9-25,70,58,49,59,49,38,93,73,50,30.05,29.94,18,3,19,0.12
2012-9-26,65,63,57,64,61,56,96,94,90,30.12,29.93,16,2,18,2.02
2012-9-27,62,58,48,61,55,46,96,90,71,30.20,30.10,13,2,14,0.24
2012-9-28,67,56,47,55,49,46,96,79,55,30.19,30.09,10,1,11,0.01
2012-9-29,71,56,44,53,46,37,96,73,30,30.12,29.95,13,1,14,0.00
2012-9-30,66,54,43,51,44,41,95,73,42,29.98,29.90,13,2,14,0.00
2012-10-1,67,54,41,52,44,39,95,73,43,29.97,29.78,10,1,11,0.25
2012-10-2,63,58,53,60,56,52,95,93,90,29.90,29.76,11,2,14,0.34
2012-10-3,68,61,57,59,56,52,95,85,63,30.12,29.89,12,2,16,0.04
2012-10-4,78,65,53,57,53,49,87,67,38,30.17,30.08,14,3,19,0.00
2012-10-5,66,53,42,56,49,39,93,87,70,30.15,30.05,11,2,13,1.27
2012-10-6,54,45,36,40,36,33,93,74,47,30.19,30.06,13,3,16,0.04
2012-10-7,52,44,38,37,34,30,91,70,47,30.22,30.15,12,2,14,0.00
2012-10-8,56,43,32,36,31,27,93,67,34,30.30,30.17,11,1,11,0.00
2012-10-9,64,49,37,41,37,31,92,67,36,30.19,29.94,16,4,19,0.00
2012-10-10,53,46,34,44,36,28,90,69,45,30.27,29.88,24,4,25,0.02
2012-10-11,60,47,32,37,32,28,88,60,33,30.33,30.15,20,4,20,0.00
2012-10-12,55,48,41,40,31,20,75,55,28,30.45,30.19,14,2,17,0.00
2012-10-13,68,54,37,61,44,30,91,70,45,30.42,29.96,22,4,22,0.27
2012-10-14,70,66,54,61,58,48,85,76,64,29.96,29.57,30,10,32,0.03
2012-10-15,55,51,42,48,45,37,92,78,64,30.00,29.73,24,5,28,0.04
2012-10-16,64,48,32,43,38,31,95,70,40,30.05,29.79,13,2,17,0.00
2012-10-17,75,62,54,55,48,42,90,60,37,29.79,29.51,20,6,24,0.41
2012-10-18,63,57,50,52,42,32,91,61,32,29.69,29.41,25,8,28,0.26
2012-10-19,55,49,45,45,40,35,91,73,56,29.67,29.58,16,4,19,0.24
2012-10-20,56,49,45,44,42,40,91,77,58,29.99,29.66,17,5,20,0.01
2012-10-21,65,50,37,47,42,35,95,76,49,30.16,29.99,12,1,13,0.00
2012-10-22,76,62,49,59,50,44,84,68,44,30.12,29.99,17,3,17,0.00
2012-10-23,68,64,60,60,56,52,93,77,57,30.07,29.95,20,4,21,0.38
2012-10-24,80,68,60,59,55,52,93,64,47,30.08,29.98,14,3,16,0.01
2012-10-25,78,67,56,56,53,50,81,62,43,30.04,29.89,21,5,24,0.00
2012-10-26,68,50,44,55,44,40,91,82,60,30.25,29.90,18,4,18,0.30
2012-10-27,54,46,40,40,36,34,88,69,51,30.24,30.13,16,4,20,0.00
2012-10-28,48,43,39,36,32,29,77,66,55,30.20,30.10,19,5,20,0.00
2012-10-29,43,41,38,32,28,22,74,61,43,30.12,29.76,22,8,24,0.00
2012-10-30,42,36,33,37,33,23,94,87,47,29.76,29.54,21,6,28,0.94
2012-10-31,42,39,37,39,36,35,92,90,81,29.80,29.62,17,5,19,0.17
2012-11-1,50,42,35,38,34,28,93,75,49,29.88,29.79,19,5,20,0.01
2012-11-2,46,41,32,33,30,27,82,66,55,30.13,29.86,14,2,17,0.00
2012-11-3,44,38,31,33,30,26,89,73,59,30.25,30.13,7,1,8,0.00
2012-11-4,39,34,27,32,28,23,92,80,68,30.26,30.20,10,1,10,0.00
2012-11-5,44,32,22,29,25,19,92,75,49,30.27,30.19,8,1,10,0.00
2012-11-6,49,37,24,32,28,21,91,69,48,30.19,29.97,11,1,11,0.00
2012-11-7,48,38,28,37,31,25,93,78,59,30.19,29.97,12,3,13,0.00
2012-11-8,52,36,24,40,30,21,95,79,51,30.30,30.18,10,1,12,0.00
2012-11-9,59,44,29,44,36,27,93,75,46,30.28,30.11,17,5,17,0.12
2012-11-10,69,59,50,49,44,40,74,56,47,30.17,30.06,19,8,25,0.00
2012-11-11,68,60,51,45,41,38,65,50,38,30.21,29.99,29,11,29,0.00
2012-11-12,62,44,32,53,37,25,91,77,49,30.39,29.94,26,10,29,0.70
2012-11-13,39,32,25,28,24,21,87,74,52,30.60,30.39,14,3,14,0.00
2012-11-14,41,32,22,28,24,20,90,76,56,30.64,30.46,12,1,12,0.01
2012-11-15,43,31,22,31,26,20,92,81,59,30.47,30.39,7,1,7,0.00
2012-11-16,50,34,24,37,28,21,93,78,45,30.56,30.42,7,0,7,0.00
2012-11-17,56,38,25,37,30,22,93,73,40,30.65,30.54,8,0,10,0.01
2012-11-18,58,41,27,34,29,24,92,66,32,30.56,30.42,8,0,8,0.00
2012-11-19,59,44,29,36,30,25,85,61,31,30.43,30.21,8,1,8,0.00
2012-11-20,59,49,42,43,38,34,81,67,44,30.21,30.10,8,1,8,0.00
2012-11-21,60,46,33,47,38,31,95,77,46,30.29,30.16,10,1,10,0.01
2012-11-22,62,50,37,44,40,34,90,69,46,30.24,29.92,24,6,24,0.00
2012-11-23,55,39,30,50,31,20,91,72,59,30.18,29.86,34,13,34,0.09
2012-11-24,31,30,29,24,22,19,79,73,67,30.25,30.15,19,9,19,0.00
2012-11-25,44,35,29,28,24,20,76,66,52,30.15,29.91,21,6,21,0.00
2012-11-26,42,35,25,31,27,22,90,74,60,30.34,30.08,11,2,11,0.00
2012-11-27,36,30,26,26,22,19,89,72,51,30.44,30.33,11,1,12,0.00
2012-11-28,41,32,26,26,23,20,83,70,53,30.44,30.34,16,5,16,0.00
2012-11-29,48,37,26,30,26,21,82,65,47,30.43,30.25,21,5,21,0.00
2012-11-30,55,45,36,37,32,27,75,61,43,30.26,30.14,17,4,18,0.00
2012-12-1,61,50,35,48,42,31,90,73,62,30.27,30.10,20,6,22,0.00
2012-12-2,58,56,53,54,51,45,93,83,61,30.13,30.00,26,7,27,0.20
2012-12-3,64,60,52,59,56,50,95,88,74,30.14,30.01,20,6,21,0.01
2012-12-4,62,52,41,53,47,37,92,81,72,30.21,30.00,24,6,24,0.19
2012-12-5,41,35,28,37,27,22,86,73,58,30.45,30.21,13,2,16,0.01
2012-12-6,45,36,28,37,28,22,80,73,64,30.39,30.02,16,4,17,0.00
2012-12-7,48,45,43,45,43,38,95,91,81,30.03,29.85,11,2,11,0.45
2012-12-8,47,44,38,45,42,35,95,93,87,30.14,29.83,13,4,13,0.01
2012-12-9,54,43,38,53,40,34,95,90,82,30.16,29.68,14,4,16,1.01
2012-12-10,50,38,32,48,35,29,95,89,81,29.95,29.69,21,8,21,0.01
2012-12-11,34,32,28,31,26,20,91,79,61,30.28,29.94,19,6,19,0.00
2012-12-12,42,31,25,27,24,21,84,74,54,30.46,30.28,12,3,12,0.00
2012-12-13,44,34,24,29,25,20,85,70,51,30.47,30.27,14,4,16,0.00
2012-12-14,49,38,32,33,28,24,81,67,50,30.33,30.20,13,3,14,0.00
2012-12-15,52,44,36,46,35,28,82,72,57,30.20,29.74,22,6,25,0.09
2012-12-16,58,52,44,50,47,41,88,82,67,29.75,29.63,22,7,22,0.00
2012-12-17,44,41,39,41,38,35,92,89,84,29.78,29.63,8,2,8,0.04
2012-12-18,41,38,34,36,33,31,92,84,70,29.87,29.67,18,5,18,0.04
2012-12-19,45,41,40,38,36,34,86,80,69,30.13,29.75,14,3,16,0.00
2012-12-20,52,43,32,47,38,28,93,81,69,30.05,29.21,40,13,40,0.85
2012-12-21,34,33,32,32,30,24,95,89,69,30.04,29.28,33,13,34,0.04
2012-12-22,34,28,24,25,22,18,85,79,65,30.24,30.04,21,8,24,0.00
2012-12-23,38,29,22,29,22,17,91,77,64,30.11,29.99,12,2,12,0.01
2012-12-24,33,30,27,30,26,23,93,85,78,30.05,29.84,12,2,12,0.01
2012-12-25,34,31,29,30,26,24,93,84,74,30.31,30.05,16,4,17,0.00
2012-12-26,32,29,25,30,26,22,94,88,68,30.23,29.75,26,9,26,0.00
2012-12-27,28,24,13,25,21,9,92,90,84,30.26,29.95,16,4,16,0.02
2012-12-28,30,24,15,28,21,11,93,89,85,30.27,29.93,11,2,11,0.02
2012-12-29,29,27,25,28,25,22,93,91,89,30.20,29.83,18,4,19,0.00
2012-12-30,26,22,19,23,17,14,89,80,72,30.48,30.20,21,9,21,0.01
2012-12-31,34,30,22,30,25,16,93,81,64,30.33,30.08,22,9,24,0.01
2013-1-1,32,25,12,29,19,8,89,79,62,30.21,30.07,12,2,12,0.05